User: anonymous   Login
Location: Sankt Anna
(58.3452°N, 16.7040°E)
Time: 15:16:46
(UTC+01:00)
Language:

Max Valier Satellite - Orbit

View from above orbital plane
View from above orbital plane
View from above satellite
View from above satellite

Ground track
Ground track

The orbit data is extracted from the following two-line orbital elements,

1 42778U 17036P   19315.86673673 +.00000924 +00000-0 +43090-4 0  9995
2 42778 097.3373 010.1862 0013903 074.0077 286.2690 15.22240798132471
Epoch (UTC): 11 November 2019 20:48:06
Eccentricity: 0.0013903
inclination: 97.3373°
perigee height: 489 km
apogee height: 508 km
right ascension of ascending node: 10.1862°
argument of perigee: 74.0077°
revolutions per day: 15.22240798
mean anomaly at epoch: 286.2690°
orbit number at epoch: 13247

The dashed part of the orbit path shows where the satellite is in the earth's shadow,  

DLR